CAPE
0 0 0 0 0 0 0 0 0 0 0 0 0 0 0 0 0 0 0 0 0 0 0 0 0 0 0 0 0 0 0 0 0 0 0 0 1 0 1 2 3 0 46 118
0 0 0 0 0 0 0 0 0 0 0 0 0 0 0 0 0 0 0 0 0 0 0 0 0 0 0 0 0 0 0 0 0 0 0 0 4 2 3 2 4 2 6 19
0 0 0 0 0 0 0 0 0 0 0 0 0 0 0 0 0 0 0 0 0 0 0 0 0 0 0 0 0 0 0 0 0 0 0 0 0 0 0 0 3 2 1 0
0 0 0 0 0 0 0 0 0 0 0 0 0 0 0 0 0 0 0 0 0 0 0 0 0 0 0 0 0 0 0 0 0 0 0 0 3 3 2 3 3 3 1 0
0 0 0 0 0 0 0 0 0 0 0 0 0 0 0 0 0 0 0 0 0 0 0 0 0 0 0 0 0 0 0 0 0 0 0 0 1 0 0 1 2 3 1 1
0 0 0 0 0 0 0 0 0 0 0 0 0 0 0 0 0 0 0 0 0 0 0 0 0 0 0 0 0 0 0 0 0 0 0 0 0 0 0 0 1 1 2 1
0 0 0 0 0 0 0 0 0 0 0 0 0 0 0 0 0 0 0 0 0 0 0 0 0 0 0 0 0 0 0 0 0 0 0 0 0 0 0 0 1 1 4 1
0 0 0 0 0 0 0 0 0 0 0 0 0 0 0 0 0 0 0 0 0 0 0 0 0 0 0 0 0 0 0 0 0 0 0 0 0 0 0 0 0 0 0 1
0 0 0 0 0 0 0 0 0 0 0 0 0 0 0 0 0 0 0 0 0 0 0 0 0 0 0 0 0 0 0 0 0 0 0 0 1 1 0 1 1 0 0 0
0 0 0 0 0 0 0 0 0 0 0 0 0 0 0 0 0 0 0 0 0 0 0 0 0 0 0 0 0 0 0 0 0 0 0 0 1 0 1 1 1 1 0 0
0 0 0 0 0 0 0 0 0 0 0 0 0 0 0 0 0 0 0 0 0 0 0 0 0 0 0 0 0 0 0 0 0 0 0 1 0 0 1 1 1 1 1 0
0 0 0 0 0 0 0 0 0 0 0 0 0 0 0 0 0 0 0 0 0 0 0 0 0 0 0 0 0 0 0 0 0 0 0 0 0 1 0 2 1 1 1 1
0 0 0 0 0 0 0 0 0 0 0 0 0 0 0 0 0 0 0 0 0 0 0 0 0 0 0 0 0 0 0 0 0 0 0 1 1 1 1 1 1 1 1 1
0 0 0 0 0 0 0 0 0 0 0 0 0 0 0 0 0 0 0 0 0 0 0 0 0 0 0 0 0 0 0 0 0 0 1 1 2 2 1 1 1 0 1 0
0 0 0 0 0 0 0 0 0 0 0 0 0 0 0 0 0 0 0 0 0 0 0 0 0 0 0 0 0 0 0 0 0 0 1 0 1 0 1 1 0 0 0 0
0 0 0 0 0 0 0 0 0 0 0 0 0 0 0 0 0 0 0 0 0 0 0 0 0 0 0 0 0 0 0 0 0 0 0 0 0 1 1 1 0 1 1 1
0 0 0 0 0 0 0 0 0 0 0 0 0 0 0 0 0 0 0 0 0 0 0 0 0 0 0 0 0 0 0 0 0 0 0 0 0 0 1 1 0 1 1 1
0 0 0 0 0 0 0 0 0 0 0 0 0 0 0 0 0 0 0 0 0 0 0 0 0 0 0 0 0 0 0 0 0 0 0 0 0 0 0 0 1 1 1 0
0 0 0 0 0 0 0 0 0 0 0 0 0 0 0 0 0 0 0 0 0 0 0 0 0 0 0 0 0 0 0 0 0 0 0 0 0 0 0 0 0 0 1 0
0 0 0 0 0 0 0 0 0 0 0 0 0 0 0 0 0 0 0 0 0 0 0 0 0 0 0 0 0 0 0 0 0 0 0 0 0 0 0 0 0 0 0 0
1 0 0 0 0 0 0 0 0 0 0 0 0 0 0 0 0 0 0 0 0 0 0 0 0 0 0 0 0 0 0 0 0 0 0 0 0 0 0 0 0 0 0 0
0 0 0 0 0 0 0 0 0 0 0 0 0 0 0 0 0 0 0 0 0 0 0 0 0 0 0 0 0 0 0 0 0 0 0 0 0 0 0 0 0 0 0 0
0 0 0 0 0 0 0 0 0 0 0 0 0 0 0 0 0 0 0 0 0 0 0 0 0 0 0 0 0 0 0 0 0 0 0 0 0 0 0 0 0 0 0 0
0 0 0 0 0 0 0 0 0 0 0 0 0 0 0 0 0 0 0 0 0 0 0 0 0 0 0 0 0 0 0 0 0 0 0 0 0 0 0 0 0 0 0 0
0 0 0 0 0 0 0 0 0 0 0 0 0 0 0 0 0 0 0 0 0 0 0 0 0 0 0 0 0 0 0 0 0 0 0 0 0 0 0 0 0 0 0 0
0 0 0 0 0 0 0 0 0 0 0 0 0 0 0 0 0 0 0 0 0 0 0 0 0 0 0 0 0 0 0 0 0 0 0 0 0 0 0 0 0 0 0 0
CIN
0 0 0 0 0 0 0 0 0 0 0 0 0 0 0 0 0 0 0 0 0 0 0 0 0 0 0 0 0 0 0 0 0 0 0 0 0 0 0 0 0 0 -4 -4
0 0 0 0 0 0 0 0 0 0 0 0 0 0 0 0 0 0 0 0 0 0 0 0 0 0 0 0 0 0 0 0 0 0 0 0 0 0 0 0 0 0 -69 -42
0 0 0 0 0 0 0 0 0 0 0 0 0 0 0 0 0 0 0 0 0 0 0 0 0 0 0 0 0 0 0 0 0 0 0 0 0 0 0 0 0 0 0 0
0 0 0 0 0 0 0 0 0 0 0 0 0 0 0 0 0 0 0 0 0 0 0 0 0 0 0 0 0 0 0 0 0 0 0 0 0 0 0 0 0 0 0 0
0 0 0 0 0 0 0 0 0 0 0 0 0 0 0 0 0 0 0 0 0 0 0 0 0 0 0 0 0 0 0 0 0 0 0 0 0 0 0 0 0 0 0 0
0 0 0 0 0 0 0 0 0 0 0 0 0 0 0 0 0 0 0 0 0 0 0 0 0 0 0 0 0 0 0 0 0 0 0 0 0 0 0 0 0 0 0 0
0 0 0 0 0 0 0 0 0 0 0 0 0 0 0 0 0 0 0 0 0 0 0 0 0 0 0 0 0 0 0 0 0 0 0 0 0 0 0 0 0 0 0 0
0 0 0 0 0 0 0 0 0 0 0 0 0 0 0 0 0 0 0 0 0 0 0 0 0 0 0 0 0 0 0 0 0 0 0 0 0 0 0 0 0 0 0 0
0 0 0 0 0 0 0 0 0 0 0 0 0 0 0 0 0 0 0 0 0 0 0 0 0 0 0 0 0 0 0 0 0 0 0 0 0 0 0 0 0 0 0 0
0 0 0 0 0 0 0 0 0 0 0 0 0 0 0 0 0 0 0 0 0 0 0 0 0 0 0 0 0 0 0 0 0 0 0 0 0 0 0 0 0 0 0 0
0 0 0 0 0 0 0 0 0 0 0 0 0 0 0 0 0 0 0 0 0 0 0 0 0 0 0 0 0 0 0 0 0 0 0 0 0 0 0 0 0 0 0 0
0 0 0 0 0 0 0 0 0 0 0 0 0 0 0 0 0 0 0 0 0 0 0 0 0 0 0 0 0 0 0 0 0 0 0 0 0 0 0 0 0 0 0 0
0 0 0 0 0 0 0 0 0 0 0 0 0 0 0 0 0 0 0 0 0 0 0 0 0 0 0 0 0 0 0 0 0 0 0 0 0 0 0 0 0 0 0 0
0 0 0 0 0 0 0 0 0 0 0 0 0 0 0 0 0 0 0 0 0 0 0 0 0 0 0 0 0 0 0 0 0 0 0 0 0 0 0 0 0 0 0 0
0 0 0 0 0 0 0 0 0 0 0 0 0 0 0 0 0 0 0 0 0 0 0 0 0 0 0 0 0 0 0 0 0 0 0 0 0 0 0 0 0 0 0 0
0 0 0 0 0 0 0 0 0 0 0 0 0 0 0 0 0 0 0 0 0 0 0 0 0 0 0 0 0 0 0 0 0 0 0 0 0 0 0 0 0 0 0 0
0 0 0 0 0 0 0 0 0 0 0 0 0 0 0 0 0 0 0 0 0 0 0 0 0 0 0 0 0 0 0 0 0 0 0 0 0 0 0 0 0 0 0 0
0 0 0 0 0 0 0 0 0 0 0 0 0 0 0 0 0 0 0 0 0 0 0 0 0 0 0 0 0 0 0 0 0 0 0 0 0 0 0 0 0 0 0 0
0 0 0 0 0 0 0 0 0 0 0 0 0 0 0 0 0 0 0 0 0 0 0 0 0 0 0 0 0 0 0 0 0 0 0 0 0 0 0 0 0 0 0 0
0 0 0 0 0 0 0 0 0 0 0 0 0 0 0 0 0 0 0 0 0 0 0 0 0 0 0 0 0 0 0 0 0 0 0 0 0 0 0 0 0 0 0 0
0 0 0 0 0 0 0 0 0 0 0 0 0 0 0 0 0 0 0 0 0 0 0 0 0 0 0 0 0 0 0 0 0 0 0 0 0 0 0 0 0 0 0 0
0 0 0 0 0 0 0 0 0 0 0 0 0 0 0 0 0 0 0 0 0 0 0 0 0 0 0 0 0 0 0 0 0 0 0 0 0 0 0 0 0 0 0 0
0 0 0 0 0 0 0 0 0 0 0 0 0 0 0 0 0 0 0 0 0 0 0 0 0 0 0 0 0 0 0 0 0 0 0 0 0 0 0 0 0 0 0 0
0 0 0 0 0 0 0 0 0 0 0 0 0 0 0 0 0 0 0 0 0 0 0 0 0 0 0 0 0 0 0 0 0 0 0 0 0 0 0 0 0 0 0 0
0 0 0 0 0 0 0 0 0 0 0 0 0 0 0 0 0 0 0 0 0 0 0 0 0 0 0 0 0 0 0 0 0 0 0 0 0 0 0 0 0 0 0 0
0 0 0 0 0 0 0 0 0 0 0 0 0 0 0 0 0 0 0 0 0 0 0 0 0 0 0 0 0 0 0 0 0 0 0 0 0 0 0 0 0 0 0 0
Wind_Speed
19 17 17 18 18 17 18 19 18 19 21 24 21 21 22 20 18 17 13 11 13 13 15 12 15 18 22 28 27 28 28 28 27 27 26 24 23 22 20 17 12 12 21 20
18 17 16 16 16 17 19 19 21 19 18 22 21 20 21 20 19 17 15 13 13 13 12 13 13 15 19 27 29 28 28 28 26 26 25 24 25 22 23 21 19 19 21 20
18 17 14 15 16 18 19 19 21 19 21 15 19 18 21 18 17 17 15 14 15 16 15 15 16 16 17 20 28 28 27 26 24 26 24 23 21 22 20 20 21 19 23 22
18 16 16 16 17 20 18 18 19 19 21 22 24 24 21 21 20 19 17 15 15 17 17 18 18 18 18 16 12 27 26 25 25 24 22 22 22 21 21 23 22 22 22 22
18 17 17 18 18 20 18 20 18 17 17 19 20 20 21 21 22 22 18 15 15 15 18 19 19 20 19 17 10 25 23 23 23 22 21 21 21 21 21 22 22 23 22 22
18 17 18 18 18 19 20 18 17 15 17 18 19 21 22 23 20 19 18 17 15 15 15 16 18 19 20 18 16 21 22 20 21 20 19 20 20 21 21 20 20 23 24 23
19 19 18 17 19 18 19 20 18 17 16 18 18 18 17 18 19 16 15 14 15 15 15 15 16 19 20 20 20 20 19 18 8 19 18 18 19 20 21 19 19 20 25 24
19 21 17 18 19 20 20 19 17 19 18 18 17 18 19 18 17 12 12 13 14 15 16 16 16 17 20 21 21 20 20 18 18 17 18 18 18 20 20 20 21 19 20 26
17 19 18 19 19 19 18 18 16 17 16 16 15 15 14 15 17 16 14 14 13 15 15 16 17 17 19 21 20 18 20 19 20 19 17 16 17 18 19 20 21 20 20 22
16 23 19 19 18 17 17 15 18 17 18 16 15 16 17 17 17 17 16 14 13 15 16 16 17 18 19 19 18 16 17 18 16 20 16 15 16 16 18 20 20 21 21 21
17 19 20 20 17 18 17 17 15 16 15 17 19 17 15 16 17 16 17 14 12 14 16 17 17 18 19 17 11 14 16 16 16 15 18 15 16 16 17 18 20 20 21 19
16 21 24 19 19 19 18 17 15 16 16 15 15 13 14 16 16 14 14 13 11 14 15 17 17 17 18 17 12 14 15 16 16 14 14 19 19 16 16 17 18 19 20 20
16 20 24 23 19 17 17 15 15 16 17 14 15 15 17 13 11 9 9 10 10 10 13 16 17 17 18 17 14 15 15 16 18 17 17 16 19 20 18 17 17 17 18 18
16 21 22 25 23 20 18 17 13 14 18 15 6 6 7 7 6 6 6 6 7 10 11 13 15 16 17 18 16 16 16 16 16 16 15 14 9 10 17 19 17 15 14 14
19 25 24 27 25 23 22 19 18 12 13 14 18 10 17 5 1 3 3 5 9 10 11 11 13 15 16 18 18 17 20 20 20 20 19 16 14 15 14 8 16 14 13 12
20 27 25 30 24 23 28 22 23 12 20 13 13 30 31 30 8 5 7 9 9 10 11 12 13 15 16 17 18 19 19 21 23 23 23 22 22 21 21 21 17 14 15 13
21 23 24 27 25 28 36 21 14 19 20 15 12 10 19 25 17 11 8 8 9 10 11 12 13 14 15 17 19 21 22 22 21 20 19 20 22 23 21 21 20 18 16 14
22 22 24 28 28 28 24 20 21 16 21 8 13 18 17 18 15 13 8 7 8 9 10 11 13 14 16 17 19 20 21 21 21 20 19 19 19 19 20 19 19 18 17 16
23 24 26 29 26 34 33 24 21 22 30 10 10 10 14 17 21 15 5 2 6 9 8 9 12 14 15 16 17 18 19 19 19 19 20 19 19 19 20 21 20 17 11 14
26 27 27 27 30 28 21 18 16 18 28 21 13 17 13 11 13 16 12 2 4 7 8 8 10 12 13 14 15 15 16 17 17 17 18 19 19 20 20 18 18 19 19 17
26 27 28 30 33 35 26 18 15 25 22 24 21 16 9 9 10 16 10 8 7 8 8 8 8 9 11 12 12 13 13 13 14 15 16 17 17 18 19 19 19 18 18 19
29 26 28 29 29 40 17 15 19 21 21 24 21 14 8 11 14 14 9 7 7 7 8 7 7 7 8 9 10 11 11 11 11 12 12 13 14 15 16 16 17 17 17 16
36 30 29 25 28 24 13 17 12 16 17 19 18 16 10 13 14 11 8 7 7 7 6 6 5 5 6 7 8 8 9 9 9 9 9 9 10 11 12 12 12 13 13 12
34 28 34 30 33 30 23 21 20 16 16 17 19 17 14 13 13 14 12 11 9 8 6 5 4 3 2 3 5 6 6 7 8 7 6 6 6 6 7 8 8 8 8 8
31 25 32 37 39 31 29 27 27 27 23 24 21 19 20 19 17 15 14 14 13 12 9 7 6 4 2 3 1 1 2 3 4 4 4 3 3 3 3 2 3 3 3 4
28 29 30 35 30 31 33 28 26 25 25 27 26 24 22 19 19 20 16 16 15 15 13 11 10 9 6 4 3 3 2 2 3 1 2 2 1 1 3 4 5 2 3 3
Wind_Direction
335 346 352 4 6 11 5 16 22 23 22 19 26 23 26 39 40 40 46 47 40 39 40 42 32 19 3 329 304 309 310 308 302 300 296 289 280 282 282 294 273 258 244 243
333 339 359 6 3 0 356 10 14 20 25 23 24 28 35 39 42 47 45 47 39 38 41 42 38 30 15 336 315 316 316 311 306 301 290 283 273 274 267 269 269 260 251 250
324 337 359 359 354 353 355 5 9 19 14 33 26 34 37 45 47 50 51 51 45 39 38 37 37 36 30 13 320 309 309 303 296 304 283 271 261 263 277 277 267 264 252 252
326 335 346 349 340 337 352 4 8 14 18 25 28 29 38 42 41 47 51 51 51 42 39 37 37 37 37 35 37 309 312 300 307 306 277 264 262 256 268 273 272 258 256 254
319 329 337 337 332 331 346 352 4 14 19 24 32 35 39 42 39 41 48 51 52 49 39 35 36 38 42 45 67 334 352 343 329 297 272 260 260 255 269 275 276 255 254 257
322 330 332 334 334 329 335 352 1 16 18 23 31 35 37 36 37 44 51 53 53 51 48 45 39 41 42 49 53 33 15 20 333 294 280 263 261 258 269 281 288 257 253 253
315 321 331 336 329 336 340 346 355 1 16 18 29 36 39 44 45 51 52 55 53 53 50 47 46 41 40 43 47 39 42 45 26 297 284 267 259 256 262 275 273 261 251 255
317 315 323 332 326 324 331 342 353 349 3 12 24 30 37 50 55 68 68 61 57 54 50 47 48 48 43 41 44 48 44 56 50 298 286 278 264 251 255 262 261 272 265 257
319 318 321 329 327 326 330 337 353 354 359 8 23 34 42 53 52 63 70 67 62 55 49 47 48 51 48 42 46 60 55 61 49 327 297 273 268 253 247 247 253 264 267 261
321 309 315 322 330 332 328 344 339 351 350 4 16 25 35 44 52 58 62 70 67 57 51 50 51 52 52 55 61 77 74 68 83 47 305 283 278 257 253 247 248 256 265 271
318 312 315 315 321 323 329 326 337 345 351 357 1 21 40 49 53 61 60 74 70 63 56 54 56 56 56 67 117 97 92 90 97 106 69 309 296 278 265 263 264 263 262 272
311 307 302 315 318 318 321 321 326 330 340 351 2 16 35 45 50 64 66 73 77 69 64 60 63 63 62 75 115 106 101 98 101 119 119 72 17 315 293 282 280 271 267 273
311 304 302 305 316 324 320 316 317 325 330 337 349 8 9 42 60 83 84 77 81 84 76 68 69 70 69 79 103 101 110 105 102 105 107 109 81 15 337 317 304 293 281 276
310 300 297 296 306 316 319 314 311 314 314 324 311 298 296 44 69 97 123 94 104 98 98 85 80 78 76 80 93 95 102 108 111 114 116 122 157 152 94 39 8 345 324 310
302 294 297 295 301 306 307 309 300 291 297 303 318 320 231 357 290 214 152 147 101 103 103 107 96 88 86 84 90 95 86 92 94 98 102 114 122 119 129 260 352 354 353 352
294 291 298 295 303 304 300 303 295 272 295 265 280 242 254 269 353 147 135 130 117 106 107 114 106 96 95 94 94 99 105 99 81 75 77 78 77 82 88 33 2 350 2 3
288 292 297 297 304 302 290 305 288 295 296 293 287 283 314 311 335 8 61 86 122 109 103 108 111 117 107 102 103 101 104 108 108 105 100 88 63 13 6 12 18 16 8 8
283 286 292 294 299 296 304 310 310 302 300 267 291 297 304 319 330 337 11 44 74 94 94 98 97 92 109 101 102 106 105 107 104 105 106 106 105 100 96 55 5 8 15 17
278 278 286 287 291 293 292 303 304 300 288 294 268 287 295 300 312 319 339 53 38 38 70 93 98 94 94 103 100 95 99 102 104 104 100 101 105 104 102 100 103 87 294 347
274 275 275 280 287 293 305 314 317 313 295 312 308 300 293 302 301 310 336 33 17 22 44 72 83 86 88 99 98 98 101 97 99 99 98 97 94 92 98 110 114 111 114 133
271 273 264 270 281 285 293 302 313 298 295 311 316 310 295 290 296 319 345 355 22 28 25 48 72 87 98 98 104 112 105 109 94 88 86 88 88 88 88 88 96 107 112 106
265 267 270 269 278 281 298 299 287 303 308 304 306 316 304 289 302 310 321 344 352 15 15 32 52 71 88 98 109 116 124 109 91 82 78 78 79 77 77 78 81 82 85 89
264 265 271 265 275 287 291 304 310 307 305 311 314 319 316 299 296 304 311 320 329 346 9 18 30 49 66 93 110 115 121 103 91 93 95 81 76 74 76 76 74 72 70 73
266 267 267 271 272 276 282 287 295 305 304 308 311 320 314 302 290 294 297 302 311 320 334 350 359 357 36 94 125 135 101 109 119 116 104 87 79 70 70 67 68 67 66 70
267 262 265 271 273 282 281 280 284 285 289 296 300 300 300 297 290 283 287 290 296 305 308 317 317 319 319 335 177 127 108 75 123 135 129 110 43 57 60 80 60 75 55 61
264 266 265 272 278 277 280 286 285 283 287 287 295 292 294 290 288 282 278 284 287 296 299 301 305 304 301 302 298 304 286 260 307 276 212 202 221 302 324 335 333 306 329 331